Regional Weather Roundup
Issued by NWS Green Bay, WI

Home | Current Version | Previous Version | Text Only | Print | Product List | Glossary On
Versions: 1 2 3 4 5 6 7 8 9 10 11 12 13 14 15 16 17 18 19 20 21 22 23 24 25 26 27 28 29 30 31 32 33 34 35 36 37 38 39 40 41 42 43 44 45 46 47 48 49 50
000
ASUS43 KGRB 061011
RWRGRB

NORTH-CENTRAL AND NORTHEAST WISCONSIN REGIONAL WEATHER ROUNDUP
NATIONAL WEATHER SERVICE GREEN BAY WI
400 AM CST TUE DEC 06 2016

WIZ005-009-010>012-018-019-061100-
NORTH CENTRAL WISCONSIN

CITY           SKY/WX    TMP DP  RH WIND       PRES   REMARKS
IRONWOOD       CLOUDY    35  28  75 S13G24    29.66F
MANITOWISH WTR CLOUDY    32  29  88 S14G22    29.68F
ARBOR VITAE    CLOUDY    34  29  82 S8        29.71S
EAGLE RIVER    CLOUDY    31  27  83 SE7       29.71F
LAND O LAKES   MOCLDY    33  28  81 SE9       29.72F
RHINELANDER    PTCLDY    32  28  85 S9        29.73F
PHILLIPS       CLOUDY    32  29  91 S12       29.70S
ANTIGO         CLOUDY    29  29  99 SE15      29.76F FOG
TOMAHAWK       MOCLDY    30  27  90 SE5       29.75R
MERRILL        MOCLDY    30  29  94 S6        29.77R
$$

WIZ013-073-061100-
NORTHEAST WISCONSIN

CITY           SKY/WX    TMP DP  RH WIND       PRES   REMARKS
IRON MOUNTAIN  CLOUDY    34  32  92 S12       29.81S FOG
MARINETTE      CLOUDY    40  36  86 S9G18     29.86S
OCONTO         CLOUDY    38  35  87 S8        29.85S
$$

WIZ017-030-035>037-045-061100-
CENTRAL WISCONSIN

CITY           SKY/WX    TMP DP  RH WIND       PRES   REMARKS
MEDFORD        CLOUDY    30  28  94 S13       29.74S FOG
WAUSAU         CLOUDY    30  27  88 S8        29.76S
MOSINEE        CLOUDY    30  30 100 SE10      29.78R
MARSHFIELD     CLOUDY    31  28  89 S9G21     29.76S FOG
WISC RAPIDS    CLOUDY    31  30  96 S7        29.80S
STEVENS POINT  MOCLDY    28  28 100 S9        29.80S FOG
WAUPACA        CLOUDY    34  31  90 SE9       29.82F FOG
SHAWANO        CLOUDY    36  33  90 S6        29.83F FOG
CLINTONVILLE   CLOUDY    34  32  93 S8        29.82F FOG
WAUTOMA        CLOUDY   N/A N/A N/A S6        29.83S HAZE
$$

WIZ038-039-048-051-061100-
FOX VALLEY

CITY           SKY/WX    TMP DP  RH WIND       PRES   REMARKS
NWS GREEN BAY  CLOUDY    38  36  92 S9        29.84F
APPLETON       CLOUDY    34  34 100 S7        29.81F
OSHKOSH        CLOUDY    33  31  92 S6        29.83F FOG
FOND DU LAC    CLOUDY    34  30  85 S7        29.84F
$$

WIZ022-050-052-061100-
EAST CENTRAL WISCONSIN

CITY           SKY/WX    TMP DP  RH WIND       PRES   REMARKS
EPHRAIM        CLOUDY    38  36  91 S12G21    29.85F
WASHINGTON ISL CLOUDY    40  36  86 S8G20     29.86F
STURGEON BAY   CLOUDY    38  35  89 SE12      29.84F
MANITOWOC      CLOUDY    40  35  83 S10       29.86F
SHEBOYGAN      CLOUDY    38  34  85 SE6       29.85F
$$

LMZ563-521-522-541>543-061100-
LAKESHORE

STATION/POSITION TIME  TEMP    WIND        PRES    VSBY  WAVE
                       AIR SEA DIR/SP/G                  HT/PER
                 (UTC) (F)     (DEG/KT/KT) (MB)    (MI)  (FT/S)
SHEBOYGAN LKSHOR 1000   39     160/ 15/ 17 1011.0F
KEWAUNEE LKSHORE 0948   40     160/ 18/ 22 1010.4F
ALGOMA MARINA    0921          200/ 20/ 25   N/A
NORTHPORT PIER   0940   42     150/ 13/ 17 1011.5F
SISTER BAY LKSHO 0938   40     170/ 14/ 20   N/A
CHAMBERS ISLAND  0940   40     130/  7/ 13 1010.5F
MENOMINEE LKSHOR 0948   40     160/ 14/ 18 1010.0F
$$




USA.gov is the U.S. government's official web portal to all federal, state and local government web resources and services.